Presure
153 169 159 154 195 174 220 236 226 208 197 187 194 169 185 194 164 174 197 188 181 173 185 191 185 180 180 183 195 194 224 206 199 209 224 222 115 117 183 192 203 203 193 120 191 193 184
154 168 180 170 162 180 175 177 157 182 193 198 209 214 207 212 205 192 193 192 187 171 174 174 176 196 178 193 179 174 185 175 177 187 171 176 174 173 121 146 214 210 201 196 193 192 179
161 163 147 145 142 149 199 149 197 171 172 148 182 164 177 183 189 187 183 192 211 204 166 187 182 178 172 170 172 180 185 177 178 178 188 168 171 167 170 163 219 210 186 196 195 189 189
144 172 155 173 152 166 180 157 136 159 181 138 166 163 160 208 154 220 165 153 188 191 189 199 198 183 185 188 189 200 201 200 201 178 173 177 182 175 167 175 180 192 191 194 199 187 177
185 155 184 176 191 174 183 157 186 146 176 155 162 169 149 133 163 154 138 189 172 164 172 151 163 181 207 185 180 143 191 202 199 211 191 190 188 191 184 176 172 170 195 195 212 200 180
198 173 178 179 173 166 165 185 175 175 162 170 171 167 194 142 149 159 163 144 166 139 157 157 160 178 140 174 140 157 188 213 195 200 207 194 194 201 197 191 171 187 188 196 195 212 190
167 178 163 146 173 173 163 162 188 184 173 160 186 174 185 184 179 187 190 127 153 140 210 152 176 150 175 152 209 191 146 148 135 194 174 170 181 180 209 195 182 169 177 197 190 201 213
171 143 160 172 171 172 156 159 170 155 166 166 174 182 178 151 152 176 181 184 191 167 153 191 184 189 170 168 214 139 158 206 207 158 184 162 171 188 183 207 184 189 178 177 192 196 211
164 145 169 168 159 178 150 144 171 165 169 154 163 158 181 196 178 175 194 183 166 184 194 173 160 177 180 189 172 165 169 173 171 187 190 146 195 169 188 178 206 171 186 175 182 178 172
161 158 158 145 167 160 151 158 167 164 170 144 162 170 180 159 169 179 145 186 181 180 178 159 185 176 167 172 165 193 209 212 201 226 148 213 208 216 206 204 191 190 197 186 175 192 223
162 153 165 168 183 152 154 161 130 170 155 170 171 173 173 172 158 182 174 187 179 166 169 173 175 180 183 197 185 186 204 193 212 208 236 227 211 198 205 150 185 189 194 192 193 176 196
166 155 156 157 161 154 154 135 172 171 152 143 147 162 156 155 174 183 165 163 178 181 176 185 174 162 184 194 187 154 195 200 190 194 217 213 232 222 234 218 212 202 209 204 203 195 191
176 170 155 154 162 156 161 147 159 171 150 157 145 158 151 162 174 173 169 159 174 156 177 173 174 176 186 183 192 198 203 196 179 180 191 199 193 201 219 204 229 222 212 196 214 210 202
166 142 162 162 143 162 158 163 155 165 147 143 160 163 149 153 170 161 170 179 165 174 181 177 177 191 169 192 188 195 202 198 183 196 194 202 188 198 211 196 218 233 230 215 210 205 175
142 159 129 163 161 159 161 139 160 148 163 157 148 131 164 164 150 163 175 162 153 154 169 173 190 178 170 186 187 184 197 194 205 219 198 201 198 185 200 198 203 208 213 219 197 221 186
134 160 158 158 154 164 166 163 152 170 157 158 164 156 167 169 171 155 176 180 177 174 182 188 178 183 172 189 188 181 196 204 202 222 196 204 192 197 192 193 212 107 197 208 183 232 246
162 158 161 143 146 163 163 151 133 166 161 180 171 148 162 169 173 160 167 177 183 174 185 190 178 187 171 199 187 172 201 203 206 223 226 212 214 199 200 179 195 203 215 219 149 216 233
162 155 160 166 167 171 166 160 178 180 180 167 166 150 138 174 175 164 181 176 184 195 196 198 193 198 204 203 195 192 202 200 214 219 231 228 216 219 207 215 203 201 224 215 223 215 214
170 153 172 171 172 164 177 156 160 150 161 181 161 168 162 169 181 179 183 193 184 191 191 193 201 164 200 173 186 200 203 208 220 217 233 211 226 229 228 237 221 212 225 222 219 200 212
158 160 161 167 175 178 168 152 174 166 186 172 165 179 179 174 169 172 173 183 191 171 206 206 198 217 216 232 231 230 228 228 228 222 229 220 235 219 257 243 248 236 239 226 221 212 212
170 173 180 159 168 169 173 164 167 174 179 181 183 179 179 180 179 185 192 196 204 210 212 201 219 203 225 223 236 238 229 231 236 224 227 235 254 254 269 261 253 266 259 238 235 225 229
163 158 173 183 175 159 173 189 185 194 184 171 173 176 188 190 195 191 206 196 213 211 204 212 236 242 218 231 250 237 237 242 246 236 257 265 275 268 286 272 242 238 266 239 245 244 239
192 187 159 173 182 181 181 185 183 189 180 185 190 185 187 185 193 198 183 214 213 217 209 227 237 237 234 274 253 232 229 256 275 276 274 284 290 298 304 285 287 302 281 272 279 266 260
166 172 170 177 181 160 152 172 175 182 179 189 191 199 205 200 211 204 220 233 247 237 247 244 222 240 287 306 268 243 272 283 282 318 325 310 305 312 316 301 279 229 233 256 261 275 270
190 178 177 187 184 189 180 202 200 191 194 206 203 202 214 208 205 249 247 276 240 260 265 292 317 265 289 284 304 306 293 299 285 249 237 244 251 254 253 251 252 255 259 257 255 251 247
189 182 188 195 198 199 195 181 191 218 200 236 213 225 262 264 254 263 242 251 276 290 284 283 300 279 298 303 295 287 274 238 243 249 261 267 273 271 282 296 334 378 381 370 357 373 364
186 185 218 164 201 217 211 221 223 235 181 162 264 254 236 270 272 299 315 307 281 334 342 262 298 303 289 270 262 246 247 265 267 274 276 279 277 334 309 360 363 363 355 351 343 357 360
165 217 221 167 226 232 226 226 215 231 307 266 300 314 323 307 313 316 285 285 310 309 294 287 269 253 246 248 262 270 288 288 280 278 275 372 373 359 355 349 363 349 349 346 328 319 313
215 224 245 241 227 240 239 325 342 344 340 328 278 323 332 305 301 296 291 285 275 264 255 249 252 259 279 286 288 294 350 364 379 378 369 359 347 343 341 337 361 340 336 316 309 300 294
Wind_Speed
15 14 10 14 10 12 14 15 18 17 25 32 27 43 37 33 47 50 35 41 44 52 44 49 53 53 57 55 54 57 55 54 58 57 51 44 35 31 43 42 40 41 40 29 33 31 34
17 14 15 16 17 17 19 18 18 18 19 21 23 26 29 29 31 35 36 39 41 52 50 50 53 46 54 49 54 58 53 57 54 46 52 49 46 47 35 37 41 39 37 37 38 31 36
18 23 22 23 27 21 14 23 15 23 24 28 26 28 31 28 28 32 37 38 37 43 56 48 52 54 57 58 58 58 58 59 57 53 48 57 52 53 51 54 39 36 34 40 41 36 37
19 20 26 30 24 34 23 24 37 26 29 40 30 30 32 25 32 22 39 41 40 43 43 44 48 53 53 54 53 56 57 59 58 59 54 51 49 51 56 48 44 42 39 42 46 39 37
14 34 12 22 10 23 21 27 16 36 23 33 39 37 36 46 38 39 46 37 45 44 45 47 51 48 51 49 50 50 56 59 58 56 56 56 54 54 54 52 50 47 43 43 44 48 43
13 26 15 14 15 24 29 16 24 24 37 35 35 33 21 44 41 48 48 50 47 52 51 54 49 56 52 51 52 49 53 56 54 57 55 55 59 61 55 50 54 47 43 44 44 50 49
20 14 22 34 19 18 27 28 27 24 31 40 28 32 27 30 36 32 31 52 57 53 33 54 58 50 59 51 47 57 46 43 55 59 51 51 57 59 56 51 52 54 49 48 49 49 48
16 35 25 19 20 22 28 26 26 39 34 28 31 32 35 51 53 42 39 39 32 51 65 38 54 51 53 61 50 52 54 53 55 56 57 47 61 59 55 56 54 53 51 52 49 52 45
27 38 26 24 28 26 35 44 34 31 32 43 38 44 40 43 43 46 35 40 44 39 34 57 65 58 55 57 59 61 53 50 56 54 48 51 66 61 61 56 59 55 58 57 48 55 48
31 33 33 34 23 27 35 33 34 32 38 46 38 37 38 46 44 42 44 37 40 44 42 56 53 58 64 62 58 53 54 47 57 50 48 55 61 58 64 64 58 58 61 57 59 53 54
30 36 32 26 36 38 35 33 39 36 43 41 43 41 44 49 52 49 47 48 46 49 46 48 52 56 60 58 57 55 59 54 50 50 51 54 59 62 60 56 63 63 64 62 59 58 50
35 39 36 35 34 40 42 46 41 42 45 50 46 44 50 53 54 58 55 49 53 56 52 56 55 58 60 63 54 68 56 56 57 54 51 52 53 57 58 63 69 70 69 67 66 62 49
35 39 41 42 37 45 39 39 43 51 42 49 42 49 52 54 58 56 55 60 57 61 64 57 60 61 67 60 62 64 63 58 67 65 52 50 57 57 55 62 66 70 74 70 68 69 54
39 47 42 43 47 46 45 48 47 51 54 56 57 60 62 57 63 57 63 70 64 67 75 71 70 78 62 76 66 67 72 65 66 63 53 56 56 57 59 64 60 64 70 75 77 68 55
49 47 42 51 51 51 54 46 55 58 58 55 61 52 66 63 63 63 80 62 68 68 69 70 87 71 69 80 69 64 71 67 82 77 67 62 56 57 63 64 65 65 67 74 65 75 56
49 53 54 55 54 64 63 60 54 72 60 68 67 66 75 76 78 67 86 90 87 88 93 94 82 82 74 83 77 68 79 84 82 86 75 72 60 63 63 68 70 38 74 75 68 71 67
56 58 61 56 55 65 65 63 56 72 68 80 75 70 75 85 91 73 85 95 100 94 102 102 85 88 73 94 82 73 86 87 86 91 89 78 73 65 71 79 76 78 74 76 54 76 67
63 59 64 69 69 73 69 67 82 84 87 75 74 74 72 95 98 88 108 98 106 114 114 111 104 108 106 103 89 85 92 89 93 93 90 89 80 71 73 79 82 81 82 81 84 74 79
68 65 73 74 76 71 83 68 72 77 80 98 76 89 83 90 108 106 105 111 104 115 114 112 115 79 105 86 86 96 97 98 96 91 94 85 87 80 78 82 87 85 85 86 86 85 73
64 68 69 77 85 88 83 76 93 84 103 92 87 108 107 100 93 99 101 112 112 95 115 114 105 115 111 107 106 105 102 98 97 96 95 90 92 87 87 82 89 89 89 89 91 91 84
81 87 89 70 86 88 94 83 88 99 106 108 109 108 109 111 108 112 115 115 116 115 114 106 114 103 107 106 107 106 99 100 101 96 97 95 94 98 94 89 89 96 93 89 97 93 96
75 69 88 94 93 79 98 109 110 113 110 95 99 103 111 113 115 112 118 112 122 114 106 112 116 114 108 112 111 101 100 104 98 98 106 105 103 103 95 99 95 88 96 89 97 99 100
104 100 75 95 104 103 106 112 109 115 107 108 116 109 109 103 113 113 101 123 118 115 108 116 115 111 110 112 107 96 94 100 100 100 106 106 107 106 99 99 99 96 96 97 98 103 104
82 95 87 102 108 81 86 101 103 113 107 116 119 123 121 111 116 115 122 123 122 117 119 120 105 112 105 102 100 98 97 98 99 92 91 86 91 92 89 85 85 86 86 83 85 89 94
116 102 97 108 109 114 109 123 122 121 125 126 120 119 121 116 109 121 121 121 115 121 120 111 104 103 98 97 92 86 87 86 84 84 90 91 90 93 89 86 86 89 88 89 90 89 91
114 105 112 120 123 125 121 108 118 132 123 130 120 124 129 123 118 117 115 120 112 109 106 100 94 98 91 87 85 81 80 89 88 89 92 94 95 95 91 92 76 52 48 50 56 48 53
106 104 138 97 125 141 126 130 130 133 105 95 133 132 112 127 118 112 106 102 103 95 88 99 86 84 84 84 86 90 90 88 86 86 85 86 87 66 74 50 46 44 47 46 49 45 45
88 141 140 92 145 147 131 128 122 134 125 134 120 114 112 111 104 96 101 97 90 85 82 82 87 89 92 93 90 90 88 87 86 85 84 45 42 45 45 45 40 44 44 44 48 49 48
130 136 151 152 133 138 139 118 106 102 101 103 118 102 96 104 99 97 94 94 92 92 92 95 93 92 88 87 87 87 55 47 39 36 38 40 42 43 43 44 38 43 45 48 49 47 48
Wind_Direction
286 318 297 280 290 303 299 296 284 277 267 264 267 261 255 266 260 252 272 264 262 262 276 277 275 273 275 277 281 282 285 283 280 284 287 287 278 278 289 292 290 284 284 288 272 258 261
283 305 309 310 305 298 295 283 272 279 284 285 291 285 280 283 281 274 275 273 267 266 264 265 270 275 272 278 276 273 278 277 277 279 275 277 275 276 280 287 281 272 268 268 269 255 256
320 322 273 264 267 280 314 278 294 288 281 272 285 275 285 283 287 281 270 278 284 282 274 272 270 273 275 276 277 278 276 275 275 275 276 274 271 272 274 274 274 266 271 264 262 256 245
287 310 314 316 269 314 308 289 266 282 288 266 290 291 281 298 276 298 277 276 289 289 287 289 286 282 284 285 284 287 287 286 284 277 274 275 277 272 272 275 279 275 275 268 263 266 260
306 317 298 315 326 308 303 293 313 284 306 290 303 298 269 268 289 277 268 287 282 280 284 280 281 287 295 288 287 283 289 288 288 282 282 282 282 281 275 274 274 267 271 267 265 255 251
320 283 301 304 304 315 298 325 303 303 297 290 293 296 303 269 287 294 290 275 286 272 284 283 288 290 275 292 278 289 290 286 283 285 282 284 285 281 278 276 272 272 267 269 264 256 255
295 332 272 299 319 312 302 279 341 332 302 290 321 305 311 293 293 297 298 277 295 274 315 287 286 283 290 284 304 288 276 278 276 283 284 286 283 281 284 276 270 269 269 272 268 261 253
292 301 292 311 319 321 286 290 325 302 304 300 321 323 310 296 293 303 301 297 300 291 297 295 288 294 301 289 316 271 290 291 285 277 285 281 280 283 282 276 271 270 268 266 270 266 255
278 291 310 310 296 328 283 291 329 308 316 297 304 300 321 328 305 303 307 297 292 297 319 294 289 294 294 302 295 290 289 282 288 287 279 274 277 281 280 278 273 271 268 265 262 267 264
290 284 283 297 297 294 297 306 316 313 317 300 301 314 328 294 307 315 292 306 303 301 291 285 306 294 293 295 295 314 310 302 292 284 267 280 278 274 276 271 275 271 267 264 263 264 265
287 289 284 294 323 280 285 301 294 317 294 315 313 321 320 321 300 319 306 320 310 291 290 297 298 306 312 315 300 300 320 307 306 292 286 279 276 277 275 278 274 271 270 265 260 260 258
285 280 294 287 276 274 277 290 317 312 291 293 301 298 290 289 321 320 296 299 314 313 302 313 301 291 305 314 302 287 309 309 299 302 295 289 287 282 277 272 272 274 268 266 263 259 254
290 287 293 284 289 295 298 302 297 313 294 297 298 294 300 306 317 314 303 290 311 293 308 302 306 304 310 300 308 311 316 306 284 290 295 297 289 285 285 280 277 269 268 270 264 261 255
293 283 295 293 286 302 291 305 287 306 294 296 304 308 296 294 312 299 310 316 299 306 312 307 307 311 289 310 304 309 315 311 285 295 285 295 288 296 290 282 283 282 275 267 264 263 255
284 294 296 298 296 297 300 301 301 296 303 296 292 298 307 303 294 303 316 297 295 295 300 303 313 299 294 305 299 296 308 302 311 304 295 291 285 275 289 285 283 278 275 273 272 264 252
295 291 293 295 294 302 303 299 291 305 296 299 310 297 310 309 309 291 312 314 312 307 310 310 304 304 297 304 301 290 306 309 306 307 285 293 279 288 280 279 288 267 272 270 270 271 267
290 295 295 300 297 301 300 292 301 305 300 308 308 299 306 310 311 294 304 310 312 306 308 307 298 302 291 305 298 284 305 304 303 304 297 289 289 282 284 270 280 283 278 271 269 265 268
295 298 299 295 295 298 304 302 306 308 309 308 304 290 297 311 311 302 310 308 308 306 306 307 306 305 304 303 298 298 301 300 301 299 295 291 288 285 281 279 278 276 275 271 268 260 261
290 297 291 295 298 307 305 293 300 296 305 308 301 307 298 305 309 309 309 309 308 307 305 303 302 296 300 297 294 298 297 298 296 295 293 285 288 285 282 276 272 273 272 269 269 263 256
303 306 300 305 305 301 304 301 308 303 303 305 303 306 305 306 303 303 303 303 301 297 300 300 300 301 298 298 295 294 294 295 294 291 288 285 287 283 283 276 269 267 267 266 267 265 262
301 301 297 298 303 305 306 301 302 306 305 304 302 301 301 301 300 300 301 302 300 300 300 297 300 295 298 298 296 292 292 294 291 287 286 286 286 283 278 273 271 269 265 263 263 264 263
299 295 305 298 305 295 303 300 303 301 300 299 299 298 298 299 300 299 301 299 301 299 297 300 297 296 295 297 294 292 292 290 288 287 287 284 281 278 276 272 271 271 270 267 264 263 263
295 298 295 303 303 301 303 303 302 301 299 299 299 297 297 297 298 298 292 300 298 297 295 297 298 298 296 290 291 291 291 289 286 283 280 281 279 278 277 275 273 275 269 267 267 265 264
298 300 295 301 301 291 295 294 296 298 295 297 296 296 296 294 297 295 298 297 296 297 297 296 293 294 290 284 288 289 286 284 283 282 281 281 280 279 279 275 274 272 269 268 267 266 266
299 299 298 299 300 300 296 301 299 296 295 296 295 295 295 294 294 297 297 294 296 294 293 288 288 290 288 286 284 284 284 283 281 285 285 282 281 279 278 275 273 274 273 270 268 265 263
299 299 299 302 301 301 298 291 293 296 293 297 294 295 297 297 297 294 296 295 291 287 288 287 287 288 286 284 284 284 282 289 287 285 284 283 282 281 280 280 278 277 274 270 268 264 263
300 295 298 295 299 299 297 296 295 298 294 291 295 295 291 294 293 288 284 285 288 287 285 289 286 285 285 286 286 289 289 286 284 283 283 283 283 281 281 277 274 271 271 268 266 265 265
300 301 300 297 300 300 297 297 296 296 291 293 290 287 285 287 286 288 288 287 284 284 285 286 287 290 290 289 286 286 286 286 286 286 285 278 276 275 275 274 265 267 263 261 265 263 258
302 300 298 298 297 296 296 289 284 282 281 284 291 282 282 284 286 285 286 287 289 288 288 289 289 287 286 285 286 287 284 283 284 280 277 277 276 275 272 271 259 263 262 263 263 260 256